Wind_Speed
18 19 20 21 22 23 21 20 20 20 20 21 21 21 21 22 22 22 21 20 20 20 19 19 19 19 19 19 19 19 19 19 18 18 18 18 18 17 18 17 17 17 17 17 17 17 16 16 15
19 20 20 21 23 23 22 21 21 22 22 22 22 23 23 23 22 22 22 22 21 21 21 21 21 21 21 21 21 21 20 20 20 20 20 20 20 19 19 19 18 17 17 18 18 18 18 17 17
20 20 21 22 23 22 22 21 22 23 23 23 24 24 24 23 23 23 23 23 23 23 22 22 22 22 23 23 23 23 22 22 22 22 21 22 22 21 21 21 20 20 19 19 19 19 19 19 19
22 21 22 23 23 22 22 22 23 23 24 24 25 25 25 24 25 25 25 24 24 24 24 24 24 24 24 24 24 24 23 24 24 24 23 23 24 23 23 23 22 22 21 21 20 20 20 19 20
23 23 23 23 22 21 22 23 23 24 25 25 26 26 26 25 26 26 26 26 25 25 25 25 25 25 25 25 25 25 25 24 25 25 25 25 24 24 24 23 23 23 23 23 22 21 20 20 20
24 24 24 24 23 23 23 23 24 25 26 26 27 27 26 26 26 27 28 28 27 27 27 27 27 27 27 27 27 27 26 26 26 26 26 26 26 25 25 25 24 24 24 24 24 23 22 22 22
25 25 25 25 24 24 24 24 25 25 25 27 27 27 27 27 28 28 29 29 29 29 29 29 29 29 29 29 28 29 28 28 28 28 28 28 28 27 27 26 26 26 26 26 25 25 25 24 24
26 26 26 26 25 25 25 25 26 26 26 27 28 29 29 28 29 30 30 30 30 30 31 31 31 31 31 31 31 30 30 30 30 29 29 29 29 29 29 29 29 28 28 28 27 27 27 27 26
27 27 26 26 27 27 27 27 27 28 27 27 29 30 31 30 30 31 31 31 32 32 32 32 32 33 33 33 33 33 32 32 32 31 31 31 31 31 31 31 31 30 30 30 30 30 29 29 28
27 28 27 28 28 29 28 28 29 29 29 28 30 31 31 31 31 32 33 33 33 34 34 34 34 34 34 34 35 35 34 34 34 33 33 33 33 33 33 33 33 32 32 32 31 31 32 31 30
27 28 29 29 30 30 30 30 31 31 31 31 32 32 32 32 33 33 34 35 35 35 36 36 36 36 36 36 36 36 36 36 35 35 35 35 35 35 34 34 33 33 33 33 32 32 33 33 33
28 28 29 30 31 32 32 32 33 33 33 33 34 35 35 34 34 35 35 35 36 36 36 37 37 37 38 37 38 38 38 37 37 37 37 37 37 36 36 36 35 35 35 35 35 35 35 35 35
29 29 30 30 31 32 33 34 34 34 34 35 36 36 36 36 36 36 36 37 37 37 38 38 39 39 39 39 39 40 39 39 39 39 39 39 39 39 38 37 38 38 37 37 37 37 37 37 37
29 30 31 31 32 33 34 35 35 35 36 36 37 37 37 38 38 38 38 38 38 38 38 39 40 40 41 41 41 41 41 41 41 41 41 41 41 40 40 39 40 40 39 39 38 38 39 38 37
30 31 31 32 33 35 36 36 36 36 37 37 38 38 39 39 40 40 39 39 39 39 39 40 40 40 41 41 42 42 42 42 42 42 42 42 42 42 42 41 41 41 41 40 40 40 39 39 39
30 31 32 32 34 35 37 37 36 37 38 38 39 39 40 41 41 41 41 41 40 40 40 40 40 40 41 41 42 42 43 43 44 44 44 44 43 43 43 43 43 43 43 42 42 41 41 40 40
30 31 32 33 34 35 37 37 37 38 39 40 40 40 41 42 42 42 42 42 42 42 42 42 42 42 42 42 42 42 43 43 44 44 44 44 44 44 44 45 45 44 44 44 43 43 42 42 42
32 33 33 34 35 37 38 38 38 39 40 41 42 42 42 42 43 43 43 43 43 43 44 44 44 43 43 43 43 43 44 44 45 45 45 45 46 46 46 47 47 46 46 46 45 45 44 44 43
33 34 35 36 37 39 39 39 39 40 41 41 42 42 43 43 43 43 43 44 44 45 45 45 45 45 45 45 44 44 44 45 45 45 45 45 46 46 47 47 47 47 47 47 47 46 46 46 45
33 35 36 37 38 39 41 41 41 41 42 42 42 42 42 43 43 44 44 44 45 45 45 45 45 46 46 47 46 46 45 45 45 45 45 45 46 47 47 47 47 48 48 48 48 47 47 47 47
34 36 36 38 38 40 41 42 41 41 41 42 42 42 43 43 43 43 43 44 44 44 44 45 45 45 46 46 46 46 46 45 45 45 45 46 46 47 48 48 48 48 48 48 48 49 48 48 49
35 36 37 38 39 40 41 43 40 40 40 41 42 42 43 43 43 43 43 43 43 44 45 45 45 45 45 45 45 45 46 46 45 45 46 46 46 47 47 48 48 49 49 49 49 49 49 49 49
36 36 37 39 40 41 41 43 41 40 40 40 40 41 42 42 43 43 43 43 43 43 44 45 45 46 46 46 46 46 47 47 47 47 47 47 47 47 47 48 48 49 49 49 49 50 50 50 51
35 36 37 39 40 41 38 40 41 39 39 40 40 40 41 41 42 43 44 44 44 44 44 45 46 46 47 47 47 47 48 48 48 48 49 49 49 49 48 48 49 49 49 50 50 51 52 52 52
34 35 37 38 39 39 38 39 41 40 39 39 39 40 40 41 42 43 44 45 45 45 46 46 47 47 47 48 48 48 48 49 50 50 50 51 51 51 51 51 50 51 51 51 52 52 53 52 52
33 35 36 38 39 39 38 39 40 39 39 40 40 40 40 41 42 43 43 44 45 46 46 47 47 48 48 49 49 50 49 50 50 51 51 52 52 52 52 52 52 53 53 53 53 53 53 53 52
33 34 35 37 39 40 39 39 39 38 38 39 40 40 40 40 41 42 42 43 44 45 46 47 47 48 49 50 50 50 51 51 51 51 52 52 53 53 53 54 54 54 54 54 54 54 54 54 53
33 34 34 35 37 39 39 39 39 38 38 39 39 40 40 40 41 41 42 43 44 45 46 46 47 48 49 50 51 51 51 51 51 52 52 53 53 54 54 54 54 55 55 54 54 54 54 54 55
33 34 35 36 37 38 39 38 38 39 39 39 39 39 39 39 39 40 41 42 42 43 45 46 46 47 48 49 50 51 52 53 52 52 53 53 53 54 55 55 55 55 55 55 55 55 55 55 55
33 34 35 36 36 37 39 39 38 38 38 38 39 38 38 39 39 39 39 40 41 42 43 44 45 45 46 48 49 50 51 52 53 53 53 53 53 53 53 54 54 55 55 55 55 55 56 56 56
Wind_Direction
244 244 243 243 244 245 246 247 248 249 248 249 250 251 251 252 252 252 252 251 251 250 250 250 250 250 251 251 251 249 249 249 250 250 250 251 251 251 253 254 253 252 252 250 248 248 248 246 243
243 245 244 243 244 246 246 247 248 250 251 251 251 251 251 252 253 254 253 252 252 252 252 252 252 252 252 252 252 251 250 251 251 250 250 250 252 252 253 255 255 255 254 252 250 249 249 249 246
244 246 246 246 246 248 249 248 248 249 251 251 251 251 252 253 254 254 253 253 253 253 254 254 253 254 254 253 254 253 253 253 253 252 252 251 252 252 252 254 255 255 255 253 253 251 251 250 248
246 247 248 249 250 252 253 251 250 252 251 250 250 250 251 251 252 253 252 252 253 253 254 254 254 254 254 255 255 254 254 254 254 254 253 252 251 251 251 252 254 254 255 255 254 255 252 250 249
247 248 249 250 253 255 256 256 256 254 252 251 250 251 252 251 252 252 252 252 253 254 254 255 255 255 254 255 255 255 255 254 254 253 253 253 252 252 252 251 252 253 254 255 255 254 252 252 250
247 249 251 252 254 255 256 258 260 258 256 254 253 254 254 254 254 254 254 254 253 253 254 255 255 255 255 256 256 256 255 255 254 253 253 254 254 253 254 253 254 254 255 256 255 254 254 255 253
250 250 251 254 255 256 258 259 259 261 260 258 257 256 256 255 255 255 255 255 254 254 254 255 255 255 255 256 256 255 255 256 256 255 254 254 255 255 255 255 256 256 256 256 255 256 256 256 256
253 254 253 254 256 257 259 259 261 262 261 261 260 259 257 256 256 256 256 256 255 255 255 255 256 256 256 256 257 257 257 257 256 256 256 256 256 257 256 256 255 255 255 256 255 255 255 255 255
255 254 253 255 256 258 260 261 262 262 262 261 261 260 259 259 259 259 258 258 257 257 257 257 258 258 258 258 258 258 257 257 257 257 258 258 258 257 257 256 256 254 254 254 255 254 254 254 253
256 256 256 257 259 260 261 262 262 263 263 263 263 261 261 261 261 262 261 260 259 258 258 258 259 259 259 258 258 258 258 257 257 258 258 259 259 258 258 256 256 256 255 255 254 254 254 253 252
258 258 258 259 260 262 262 263 263 264 264 263 263 264 264 263 263 262 262 261 260 259 259 259 259 259 259 258 258 258 258 258 258 257 258 258 259 257 257 256 256 256 255 254 254 254 254 253 252
261 261 261 261 262 262 263 264 264 264 264 264 264 265 265 265 264 263 262 261 261 260 260 259 259 259 259 259 258 258 258 258 258 257 257 257 258 258 258 257 257 256 256 256 256 256 255 254 253
263 263 263 263 263 263 264 265 265 265 265 265 265 266 266 266 265 264 263 262 261 260 260 259 259 259 259 259 259 259 259 259 259 259 258 258 257 257 257 258 258 258 257 256 256 256 255 255 253
266 265 264 264 264 265 266 266 267 266 265 265 266 266 266 266 266 264 263 263 261 261 261 261 261 260 260 260 260 260 259 259 259 259 259 258 257 257 256 257 257 257 257 256 256 256 256 255 254
267 267 267 267 267 268 267 267 268 268 267 266 266 266 266 265 265 264 263 262 262 263 262 262 261 261 261 260 260 260 260 260 260 260 260 259 258 257 256 256 256 257 257 257 257 256 256 256 254
268 269 270 270 270 270 269 269 269 270 269 268 268 267 266 265 264 263 263 262 262 262 262 263 262 262 262 262 261 261 261 260 260 260 260 260 259 258 256 256 256 256 257 258 258 257 256 256 255
271 272 273 273 273 272 272 272 270 270 270 269 269 267 266 265 264 263 263 262 261 261 261 262 263 263 263 263 263 262 262 262 261 260 260 259 259 258 257 257 256 257 258 258 258 258 257 256 255
275 275 274 274 274 274 274 273 272 271 270 269 269 268 266 265 265 264 263 262 261 261 261 262 263 262 262 263 263 263 263 263 262 261 260 259 258 258 258 257 257 257 258 258 258 258 257 255 255
276 276 276 276 275 275 275 275 275 274 272 270 269 267 266 265 265 264 263 262 262 262 262 263 262 262 263 263 263 264 264 264 263 263 262 260 259 258 258 258 258 258 258 258 258 257 256 256 255
277 277 278 277 277 277 277 277 276 275 274 272 269 267 266 266 265 264 263 264 264 263 263 263 263 263 263 263 263 264 264 264 264 262 261 260 259 259 258 258 258 258 258 258 258 257 256 255 255
278 279 280 280 279 279 279 278 277 276 274 273 271 269 267 266 266 265 264 264 264 263 263 263 264 264 263 263 263 263 263 263 262 261 261 261 260 260 260 259 258 259 259 258 257 257 256 256 255
281 281 281 281 281 281 280 280 278 277 276 273 272 270 269 267 266 265 265 264 264 264 264 264 264 264 264 263 263 263 263 263 262 262 261 261 261 261 260 260 259 259 259 259 257 256 255 255 256
282 282 282 282 282 282 281 281 280 279 277 275 273 271 270 269 267 266 265 265 264 264 264 264 264 264 264 264 263 263 262 262 262 262 261 261 261 261 261 260 259 258 259 259 258 256 256 255 255
284 284 284 283 283 283 283 282 280 280 279 277 275 273 271 269 267 267 266 265 264 264 264 264 264 264 264 263 263 263 263 263 263 262 261 261 261 261 261 261 260 259 259 259 258 257 256 256 255
286 286 287 286 285 284 284 283 282 282 281 279 277 275 273 270 268 267 266 265 265 264 264 264 264 264 264 263 263 263 263 263 263 263 262 261 261 261 261 261 261 260 259 259 258 257 257 256 256
289 289 288 287 286 286 285 284 284 283 282 280 279 278 276 273 271 269 267 266 265 265 264 264 264 264 264 263 263 263 263 263 264 263 263 262 262 261 261 261 261 260 260 259 258 257 257 256 256
292 291 290 289 288 287 285 284 283 284 282 281 281 280 279 276 272 270 268 267 266 266 266 265 265 265 264 263 263 263 263 263 264 263 263 262 262 262 262 261 261 260 260 259 258 258 257 256 256
292 293 292 291 291 290 288 286 286 285 283 281 281 281 279 278 275 273 271 269 268 268 267 267 266 266 265 264 263 263 263 263 263 263 263 262 262 262 262 263 262 260 259 259 258 258 257 256 256
293 292 291 290 290 291 291 289 287 286 285 284 283 282 281 280 278 276 274 273 272 271 269 268 268 267 267 265 264 263 262 262 262 262 261 262 262 263 263 263 262 261 259 258 258 257 257 256 256
293 292 291 290 290 290 290 290 288 286 285 285 285 284 282 280 278 277 277 276 274 273 272 271 269 269 268 267 266 264 264 263 263 262 262 262 263 264 264 263 262 261 259 258 258 257 257 256 256
Height
5794 5795 5796 5797 5799 5800 5802 5804 5805 5805 5807 5808 5809 5810 5811 5812 5814 5817 5817 5816 5817 5819 5819 5820 5821 5822 5823 5824 5825 5826 5827 5828 5829 5830 5830 5831 5832 5833 5834 5834 5835 5836 5837 5838 5839 5840 5841 5842 5843
5790 5791 5793 5794 5795 5796 5799 5800 5801 5802 5803 5805 5806 5807 5807 5808 5810 5811 5812 5812 5814 5815 5816 5817 5818 5819 5820 5820 5821 5822 5823 5824 5825 5826 5827 5828 5828 5829 5830 5831 5832 5833 5834 5835 5836 5837 5838 5839 5840
5786 5787 5789 5790 5791 5793 5795 5796 5797 5798 5799 5801 5802 5803 5804 5805 5806 5806 5807 5809 5810 5811 5812 5813 5814 5815 5816 5816 5817 5818 5819 5820 5821 5822 5823 5824 5824 5825 5826 5827 5828 5829 5831 5832 5833 5834 5835 5836 5837
5783 5784 5785 5787 5788 5790 5791 5792 5792 5794 5795 5796 5797 5798 5799 5801 5801 5802 5803 5804 5805 5807 5808 5808 5809 5810 5811 5812 5813 5813 5814 5815 5817 5818 5819 5819 5820 5821 5822 5823 5824 5825 5827 5828 5829 5830 5831 5832 5833
5778 5780 5781 5782 5784 5786 5787 5788 5788 5789 5790 5791 5792 5793 5794 5796 5796 5797 5798 5800 5801 5802 5803 5804 5805 5806 5806 5807 5808 5809 5809 5810 5811 5813 5814 5814 5815 5817 5818 5819 5820 5821 5822 5823 5824 5825 5827 5828 5829
5774 5775 5777 5778 5780 5782 5783 5783 5784 5784 5785 5786 5787 5788 5789 5791 5791 5792 5793 5794 5795 5797 5798 5798 5799 5800 5801 5802 5803 5804 5804 5805 5806 5807 5808 5809 5810 5812 5813 5814 5815 5816 5817 5819 5820 5821 5822 5823 5825
5770 5771 5772 5774 5775 5777 5778 5778 5779 5779 5781 5781 5782 5783 5784 5786 5786 5787 5787 5789 5790 5791 5792 5793 5794 5794 5795 5796 5797 5798 5799 5799 5800 5801 5802 5803 5805 5806 5807 5808 5810 5811 5812 5813 5815 5816 5817 5818 5820
5765 5767 5768 5769 5770 5772 5773 5773 5773 5774 5776 5776 5777 5778 5779 5780 5780 5781 5782 5783 5784 5785 5786 5787 5788 5788 5789 5790 5791 5792 5793 5793 5794 5795 5796 5797 5798 5800 5801 5802 5804 5805 5806 5807 5809 5810 5811 5813 5814
5759 5762 5763 5764 5765 5766 5767 5768 5768 5768 5770 5770 5771 5772 5773 5774 5774 5775 5776 5777 5777 5778 5779 5780 5781 5782 5783 5783 5784 5785 5786 5787 5788 5789 5790 5791 5792 5793 5794 5795 5797 5798 5799 5801 5802 5803 5805 5807 5808
5754 5756 5758 5759 5759 5760 5761 5762 5763 5763 5764 5765 5765 5765 5766 5767 5768 5769 5769 5770 5770 5771 5772 5773 5773 5774 5775 5776 5777 5777 5778 5779 5780 5781 5783 5784 5785 5786 5787 5788 5789 5790 5792 5793 5795 5796 5798 5800 5801
5749 5751 5752 5752 5753 5754 5755 5756 5756 5757 5758 5759 5759 5759 5760 5760 5761 5761 5762 5763 5763 5763 5764 5765 5766 5766 5767 5768 5768 5769 5770 5771 5772 5773 5775 5776 5777 5778 5779 5780 5781 5782 5784 5785 5787 5789 5790 5792 5794
5743 5744 5745 5746 5747 5747 5748 5749 5750 5750 5752 5752 5751 5752 5752 5753 5753 5753 5754 5755 5755 5755 5756 5756 5757 5758 5758 5759 5760 5760 5761 5762 5763 5765 5766 5767 5768 5769 5770 5771 5773 5774 5776 5777 5779 5780 5782 5784 5786
5737 5738 5738 5739 5740 5740 5741 5741 5742 5743 5743 5743 5743 5744 5744 5744 5744 5745 5745 5746 5747 5747 5747 5747 5748 5749 5749 5750 5750 5751 5752 5753 5754 5755 5756 5758 5759 5760 5761 5762 5764 5765 5767 5768 5770 5772 5774 5775 5778
5730 5731 5731 5732 5732 5732 5733 5734 5734 5735 5735 5735 5735 5735 5735 5735 5735 5736 5736 5737 5738 5738 5738 5738 5738 5739 5740 5740 5741 5742 5742 5743 5744 5745 5746 5747 5749 5750 5752 5753 5754 5756 5757 5759 5761 5763 5764 5766 5769
5723 5724 5724 5724 5724 5724 5724 5726 5726 5726 5726 5726 5726 5726 5726 5726 5726 5726 5727 5727 5728 5728 5728 5728 5728 5729 5729 5730 5731 5732 5732 5733 5734 5735 5736 5737 5738 5740 5741 5743 5744 5746 5747 5749 5751 5753 5755 5757 5759
5715 5716 5717 5717 5716 5716 5717 5717 5718 5717 5717 5717 5716 5716 5716 5716 5716 5716 5717 5717 5717 5718 5718 5718 5719 5719 5719 5720 5721 5721 5722 5723 5723 5724 5725 5726 5728 5729 5730 5732 5734 5736 5738 5739 5741 5743 5745 5747 5749
5708 5708 5709 5709 5708 5707 5707 5707 5708 5707 5706 5706 5706 5706 5706 5706 5706 5706 5706 5706 5707 5707 5708 5708 5708 5709 5709 5710 5710 5711 5711 5712 5712 5713 5714 5715 5716 5718 5719 5721 5723 5725 5727 5729 5731 5733 5735 5737 5739
5701 5701 5700 5700 5699 5697 5697 5697 5698 5697 5696 5696 5695 5695 5695 5695 5695 5695 5695 5695 5696 5696 5697 5697 5698 5698 5698 5699 5699 5700 5700 5700 5701 5702 5703 5704 5705 5707 5708 5710 5712 5714 5716 5718 5720 5722 5724 5726 5728
5692 5692 5691 5691 5690 5688 5687 5687 5687 5687 5685 5684 5684 5684 5684 5684 5684 5684 5684 5684 5684 5685 5685 5686 5686 5687 5687 5688 5688 5689 5689 5689 5689 5690 5691 5692 5693 5695 5697 5698 5700 5702 5704 5706 5708 5710 5712 5715 5717
5684 5683 5682 5682 5680 5678 5677 5676 5676 5675 5674 5673 5672 5672 5673 5672 5672 5672 5672 5672 5673 5673 5674 5674 5675 5675 5675 5676 5676 5677 5677 5677 5677 5678 5679 5680 5682 5683 5685 5687 5688 5690 5692 5694 5696 5698 5700 5703 5705
5675 5674 5673 5671 5670 5668 5666 5665 5665 5663 5662 5661 5660 5660 5660 5660 5660 5660 5661 5661 5661 5661 5662 5662 5663 5663 5663 5664 5664 5664 5665 5665 5666 5666 5668 5669 5670 5672 5673 5675 5676 5678 5680 5682 5684 5686 5688 5691 5693
5666 5665 5663 5660 5658 5656 5655 5652 5654 5652 5651 5650 5649 5649 5648 5648 5648 5648 5649 5649 5649 5650 5650 5650 5650 5651 5651 5652 5652 5652 5653 5653 5654 5655 5656 5657 5658 5660 5661 5663 5664 5666 5668 5670 5671 5673 5676 5678 5681
5656 5654 5653 5650 5647 5645 5644 5640 5641 5640 5640 5639 5638 5637 5637 5636 5636 5636 5637 5637 5637 5637 5638 5638 5638 5639 5639 5639 5640 5640 5641 5641 5642 5643 5644 5645 5646 5647 5649 5650 5652 5653 5655 5657 5659 5661 5663 5666 5668
5646 5645 5643 5640 5636 5634 5634 5630 5629 5629 5629 5628 5627 5626 5625 5624 5624 5624 5624 5625 5625 5625 5625 5625 5626 5626 5626 5627 5627 5628 5628 5629 5630 5630 5632 5633 5634 5635 5636 5637 5639 5640 5642 5644 5646 5648 5650 5652 5654
5637 5634 5631 5627 5624 5623 5623 5619 5619 5618 5617 5616 5615 5614 5613 5612 5612 5612 5611 5612 5612 5612 5613 5613 5613 5613 5614 5614 5614 5615 5615 5616 5617 5618 5619 5620 5621 5622 5623 5625 5626 5627 5629 5631 5633 5634 5636 5639 5641
5627 5625 5622 5617 5614 5613 5612 5609 5610 5608 5606 5604 5603 5602 5601 5600 5600 5599 5599 5599 5599 5599 5600 5600 5600 5600 5600 5601 5601 5601 5602 5603 5604 5604 5605 5606 5607 5608 5609 5611 5612 5613 5615 5617 5618 5620 5623 5625 5627
5618 5615 5612 5608 5604 5602 5601 5600 5599 5598 5595 5593 5592 5591 5589 5588 5587 5587 5587 5586 5586 5586 5586 5587 5587 5587 5587 5587 5587 5588 5588 5589 5590 5590 5591 5592 5593 5594 5595 5596 5597 5599 5600 5602 5604 5606 5608 5611 5613
5609 5606 5603 5598 5594 5592 5591 5589 5587 5586 5584 5583 5581 5580 5578 5577 5576 5575 5574 5574 5574 5573 5573 5573 5573 5574 5573 5573 5574 5574 5575 5575 5576 5576 5577 5578 5579 5580 5581 5581 5582 5584 5585 5587 5589 5591 5594 5596 5599
5601 5598 5593 5590 5586 5583 5580 5582 5578 5576 5574 5572 5570 5568 5567 5565 5564 5563 5562 5561 5561 5561 5560 5560 5560 5560 5559 5559 5559 5560 5560 5560 5561 5562 5563 5563 5564 5565 5566 5566 5567 5568 5570 5572 5574 5576 5579 5581 5584
5591 5588 5584 5582 5578 5574 5571 5573 5568 5565 5563 5561 5560 5558 5556 5554 5553 5551 5550 5549 5549 5548 5547 5547 5546 5546 5546 5545 5545 5545 5546 5546 5546 5547 5548 5548 5549 5550 5551 5551 5552 5553 5554 5556 5558 5561 5563 5566 5568